Weather in Wilmington

United States     34°14′11″N   77°55′40″W
temp.,
°C
wind,
m/s
gust,
m/s
humid.,
%
clouds,
%
prec.,
mm/h
press.,
hPa
HPBL,
m
18 september, sat
sat1823:00+23nne2391100 0.0 1018101
02:00+23nne249284 0.0 1017124
05:00+21n24969 0.0 1018146
08:00+22nne25925 0.0 1019228
11:00+29nne345892 0.0 10191159
14:00+31ne344793 0.0 10171939
17:00+27se356995 0.3 1016465
20:00+24se248024 0.3 1018155
19 september, sun
sun1923:00+23se228232 0.0 101976
02:00+23e11835 0.0 101824
05:00+22ene118889 0.3 101817
08:00+23nne238647 0.3 101997
11:00+29ene365195 0.0 10201296
14:00+31ese5644100 0.0 10191554
17:00+28ese465465 0.0 1018923
20:00+24ese3776100 0.0 1019296
20 september, mon
mon2023:00+24ese26825 0.0 1020217
02:00+24e268164 0.0 1020265
05:00+23ene258194 0.0 1020172
08:00+24ene3880100 0.0 1021419
11:00+29e5756100 0.1 10221616
14:00+30ese5752100 0.1 10211704
17:00+28ese5660100 0.1 10201275
20:00+24e3878100 0.3 1021444
21 september, tue
tue2123:00+24ene3780100 0.1 1021370
02:00+23ene2784100 0.1 1021245
05:00+23ene2488100 0.1 1020114
08:00+24ene2786100 0.4 1021202
11:00+29ese5757100 0.1 10211570
14:00+30se6754100 0.2 10201665
17:00+26ese4876100 0.8 1019748
20:00+24se4991100 7.3 1019397
22 september, wed
wed2223:00+23se3996100 13.4 1018446
02:00+23sse3996100 27.8 1016410
05:00+22s279798 12.7 1015212
08:00+22sw1296100 14.7 101597
11:00+25ssw128880 0.3 1014230
14:00+27sw467797 4.0 10131014
17:00+26ssw357827 1.7 1011734
20:00+22sw269458 4.3 1012185